Regional Weather Roundup
Issued by NWS

Home | Current Version | Previous Version | Text Only | Print | Product List | Glossary On
Versions: 1 2 3 4 5 6 7 8 9 10 11 12 13 14 15 16 17 18 19 20 21 22 23 24 25 26 27 28 29 30 31 32 33 34 35 36 37 38 39 40 41 42 43 44 45 46 47 48 49 50
000
ASUS46 KLOX 022113
RWRCA

SOUTHERN CALIFORNIA WEATHER ROUNDUP
NATIONAL WEATHER SERVICE OXNARD CALIFORNIA
200 PM PDT WED SEP 02 2015

NOTE: "FAIR" INDICATES FEW OR NO CLOUDS BELOW 12,000 FEET WITH NO
SIGNIFICANT WEATHER AND/OR OBSTRUCTIONS TO VISIBILITY.

  -  STATIONS PRECEEDED BY AN ASTERISK (*) ARE NOT NWS OR FAA
     STATIONS AND ARE NOT SUBJECT TO NWS AND FAA QUALITY CONTROL.

CAZ041-042-087-022200-
LA AND ORANGE COUNTY COASTAL AREAS


CITY           SKY/WX    TMP DP  RH WIND       PRES   REMARKS
L.A. DOWNTOWN  FAIR      77  60  55 VRB3      29.93F
L.A. AIRPORT   FAIR      74  60  61 W13       29.95F
LONG BEACH     NOT AVBL

CITY           SKY/WX    TMP DP  RH WIND       PRES   REMARKS
AVALON           N/A     72 N/A N/A MISG        N/A
FULLERTON      FAIR      80  60  50 SW8       29.92
*GETTY CENTER    N/A     73  59  60 SW12G17     N/A
HAWTHORNE      FAIR      76  59  55 W13G20    29.95
*LOS ALAMITOS  MOSUNNY   78  63  59 S12       29.94F
*REDONDO BEACH   N/A     76  61  59 W2        29.95F
SANTA ANA      FAIR      76  60  57 SW9G24    29.94F
STA MONICA APT FAIR      73  60  63 SW10G18   29.95F
TORRANCE       MOSUNNY   77  61  57 W12       29.95F
*UCLA            N/A     72  59  64 SW7       29.92F

$$

CAZ547-548-048-022200-
LA COUNTY VALLEYS AND INLAND EMPIRE


CITY           SKY/WX    TMP DP  RH WIND       PRES   REMARKS
BURBANK        FAIR      78  59  51 S9        29.93
VAN NUYS       FAIR      82  56  40 S6        29.93

CITY           SKY/WX    TMP DP  RH WIND       PRES   REMARKS
CORONA AIRPORT FAIR      84  60  44 W14       29.92F
*CHATSWORTH      N/A     83  58  42 E3        29.91F
CHINO          FAIR      88  55  32 NW10      29.93F
MARCH AFB      MOSUNNY   85  57  37 NW6       29.94F
*NORTHRIDGE      N/A     82  50  32 SE3G12      N/A
ONTARIO        FAIR      86  52  30 VRB6      29.93F
*PASADENA        N/A     82  64  54 CALM        N/A
POMONA         SUNNY     82  54  36 W5        29.97F
RIVERSIDE      FAIR      85  55  35 MISG      29.92F
SAN BERNARDINO PTSUNNY   84  46  26 SW6       29.94F
*SAN GABRIEL     N/A     79  62  56 S9        29.98F
*WHITEMAN AP   MOSUNNY   79  57  47 SE7       29.97F
*WOODLAND HILL   N/A     81  57  44 S7          N/A

$$

CAZ054-055-022200-
LA AND SAN BERNARDINO COUNTY MOUNTAINS


CITY           SKY/WX    TMP DP  RH WIND       PRES   REMARKS
*BIG BEAR AIRP FAIR      73  30  20 SW9       30.20S
*CHILAO          N/A     73  23  15 SE17G29     N/A
SANDBERG       FAIR      76  35  22 S14G25    30.08F
*WARM SPRINGS    N/A     80  50  34 SE3         N/A

$$

CAZ028-029-059-060-099-022200-
ANTELOPE VALLEY AND SURROUNDING AREAS


CITY           SKY/WX    TMP DP  RH WIND       PRES   REMARKS
LANCASTER      FAIR      88  38  17 SW21G28   29.94F
PALMDALE       FAIR      87  42  20 SW16      29.94F

CITY           SKY/WX    TMP DP  RH WIND       PRES   REMARKS
29 PALMS       FAIR      97  37  12 S14G22    29.94F HX  92
BARSTOW/DAGGET FAIR      92  34  13 NW9       29.89F
BISHOP         FAIR      91  20   7 S16G28    29.91F
CHINA LAKE     FAIR      94  14   5 S16G23    29.88F
EDWARDS AFB    MOSUNNY   89  26  10 SW12      29.91F
MOJAVE         SUNNY     88  21   8 SW18G28   29.96S
NEEDLES        FAIR     102  39  11 S10G20    29.84F HX  97
VICTORVILLE    FAIR      90  25   9 S20       29.96F

$$

CAZ039-040-022200-
VENTURA AND SANTA BARBARA COUNTY COAST


CITY           SKY/WX    TMP DP  RH WIND       PRES   REMARKS
CAMARILLO      FAIR      77  60  55 SW13      29.94F
NWS OXNARD       N/A     76  59  56 CALM      29.94F
OXNARD AIRPORT FAIR      75  59  57 SW10      29.95F
*POINT MUGU    FAIR      75  60  59 SW12G21   29.96F
SBA APT/GOLETA FAIR      75  60  59 SW6       29.94F
*SANTA BARBARA   N/A     80  59  47 NW3       30.01F
*VENTURA         N/A     79  59  49 SW13      29.56S

$$

CAZ044-045-022200-
VENTURA COUNTY VALLEYS


CITY           SKY/WX    TMP DP  RH WIND       PRES   REMARKS
*SIMI VALLEY     N/A     79  62  54 W2        29.87F
*OJAI            N/A     81  63  53 CALM      29.86F
*FILLMORE        N/A     81  64  55 CALM      29.82F

$$

CAZ053-022200-
VENTURA COUNTY MOUNTAINS


CITY           SKY/WX    TMP DP  RH WIND       PRES   REMARKS
*LOCKWOOD VLY    N/A     75  25  15 S6          N/A
*ROSE VALLEY     N/A     79  59  50 MISG        N/A

$$

CAZ034-035-036-022200-
CENTRAL COAST AND SANTA YNEZ VALLEY


CITY           SKY/WX    TMP DP  RH WIND       PRES   REMARKS
SAN LUIS OBISP FAIR      77  56  48 NW15      29.95S
SANTA MARIA    FAIR      77  57  50 NW21      29.95F

CITY           SKY/WX    TMP DP  RH WIND       PRES   REMARKS
*CAL POLY SLO    N/A    N/A N/A N/A SW8         N/A
*LOMPOC        FAIR      75  55  50 W13G21    29.97S
*PISMO BEACH     N/A     68  60  76 W10       29.96F
*SANTA YNEZ    FAIR      79  55  44 SW9       29.94F

$$

CAZ037-038-051-022200-
SAN LUIS OBISPO COUNTY INTERIOR AND CUYAMA VALLEY


CITY           SKY/WX    TMP DP  RH WIND       PRES   REMARKS
*CUYAMA          N/A     82  49  31 N3        29.82F
PASO ROBLES    FAIR      79  55  43 SW14      29.93F

$$

CAZ032-033-061-022200-
SOUTHERN DESERTS


CITY           SKY/WX    TMP DP  RH WIND       PRES   REMARKS
BLYTHE         FAIR     100  52  19 S12G23    29.81F HX  97
IMPERIAL       FAIR     100  48  17 VRB3      29.78F HX  96
PALM SPRINGS   FAIR      99  44  15 VRB3      29.82F HX  95
THERMAL        FAIR      99  45  15 S10       29.76F HX  95

$$

ELSEWHERE ACROSS THE WESTERN UNITED STATES AND MEXICO


CITY           SKY/WX    TMP DP  RH WIND       PRES   REMARKS
DENVER, CO     FAIR      90  33  13 E9        30.04F
GRAND CANYON,  FAIR      80  44  27 SW14G20   30.24F
HONOLULU, HI   MOSUNNY   84  77  79 SW7       29.86S HX  94
KAHULUI, MAUI  MOSUNNY   88  75  66 S22       29.87S HX  97
LAKE TAHOE, CA FAIR      74  30  19 S8        30.08F
LAS VEGAS, NV  PTSUNNY   99  43  14 S10G23    29.82F HX  95
MAMMOTH LAKES, FAIR      77  21  12 E12G17    30.14F
MEXICO CITY, M MOSUNNY   73  52  46 SW6       30.27F
PHOENIX, AZ    PTSUNNY   99  48  17 CALM      29.86F HX  95
PORTLAND, OR   PTSUNNY   70  51  51 VRB6      29.92F
RENO, NV       FAIR      86  30  13 W10G18    29.93F
SALT LAKE CITY FAIR      90  42  18 S24G31    29.92F
SAN DIEGO, CA  PTSUNNY   75  58  55 SW9       29.97F
SAN FRANCISCO, FAIR      72  56  57 W17       29.95S
SAN JOSE, CA   FAIR      76  55  48 W15       29.94S
SEATTLE, WA    PTSUNNY   60  51  72 SW8       29.92R
TIJUANA, MEX   MOSUNNY   75  55  50 W10       29.98S

$$

STATION/POSITION TIME  TEMP    WIND        PRES    VSBY  WAVE
                       AIR SEA DIR/SP/G                  HT/PER
                 (UTC) (F)     (DEG/KT/KT) (MB)    (MI)  (FT/S)
POINT ARGUELLO B NOT AVBL
WEST SANTA BARBA 2050   65 69  320/ 14/ 16 1013.5F         6/12
POINT CONCEPTION NOT AVBL
EAST SANTA BARBA 2100   69 72  260/  6/  8 1014.4F
SANTA MONICA BAY 2050   67 71  220/  8/ 10 1014.3F         3/11


USA.gov is the U.S. government's official web portal to all federal, state and local government web resources and services.